Probability
0 0 0 0 0 0 0 0 0 0 0 0 0 0 0 0 0 0 0 0 0 0 0 0 0 0 0 0 0 0 0 0 0 0 0 0 0 0 0 0 0 0 0 0 0 0 0 0 0
0 0 0 0 0 0 0 0 0 0 0 0 0 0 0 0 0 0 0 0 0 0 0 0 0 0 0 0 0 0 0 0 0 0 0 0 0 0 0 0 0 0 0 0 0 0 0 0 0
0 0 0 0 0 0 0 0 0 0 0 0 0 0 0 0 0 0 0 0 0 0 0 0 0 0 0 0 0 0 0 0 0 0 0 0 0 0 0 0 0 0 0 0 0 0 0 0 0
0 0 0 0 0 0 0 0 0 0 0 0 0 0 0 0 0 0 0 0 0 0 0 0 0 0 0 0 0 0 0 0 0 0 0 0 0 0 0 0 0 0 0 0 0 0 0 0 0
0 0 0 0 0 0 0 0 0 0 0 0 0 0 0 0 0 0 0 0 0 0 0 0 0 0 0 0 0 0 0 0 0 0 0 0 0 0 0 0 0 0 0 0 0 0 0 0 0
0 0 0 0 0 0 0 0 0 0 0 0 0 0 0 0 0 0 0 0 0 0 0 0 0 0 0 0 0 0 0 0 0 0 0 0 0 0 0 0 0 0 0 0 0 0 0 0 0
0 0 0 0 0 0 0 0 0 0 0 0 0 0 0 0 0 0 0 0 0 0 0 0 0 0 0 0 0 0 0 0 0 0 0 0 0 0 0 0 0 0 0 0 0 0 0 0 0
0 0 0 0 0 0 0 0 0 0 0 0 0 0 0 0 0 0 0 0 0 0 0 0 0 0 0 0 0 0 0 0 0 0 0 0 0 0 0 0 0 0 0 0 0 0 0 0 0
0 0 0 0 0 0 0 0 0 0 0 0 0 0 0 0 0 0 0 1 2 1 0 0 0 0 0 0 0 0 0 0 0 0 0 0 0 0 0 0 0 0 0 0 0 0 0 0 0
0 0 0 0 0 0 0 0 0 0 0 0 0 0 0 1 0 0 0 2 3 2 1 0 0 0 0 0 0 0 0 0 0 0 0 0 0 0 0 0 0 0 0 0 0 0 0 0 0
0 0 0 0 0 0 0 0 0 0 0 0 0 0 0 0 0 0 0 1 2 3 2 1 0 0 0 0 0 0 0 0 0 0 0 0 0 0 0 0 0 0 0 0 0 0 0 0 0
0 0 0 0 0 0 0 0 0 0 0 0 0 0 0 0 0 0 0 0 1 3 3 2 1 0 0 0 0 0 0 0 0 0 0 0 0 0 0 0 0 0 0 0 0 0 0 0 0
0 0 0 0 0 0 0 0 0 0 0 0 0 0 0 0 0 0 0 0 1 2 3 3 2 1 1 0 0 0 0 0 0 0 0 0 0 0 0 0 0 0 0 0 0 0 0 0 0
0 0 0 0 0 0 0 0 0 0 0 0 0 0 0 0 0 0 0 0 1 3 3 3 3 2 1 0 0 0 0 0 0 0 0 0 0 0 0 0 0 0 0 0 0 0 0 0 0
0 0 0 0 0 0 0 0 0 0 0 0 0 0 0 0 0 0 0 0 2 3 3 3 3 3 2 0 0 0 0 0 0 0 0 0 0 0 0 0 0 0 0 0 0 0 0 0 0
0 0 0 0 0 0 0 0 0 0 0 0 0 0 0 0 0 0 0 0 2 3 3 3 3 3 2 1 0 0 0 0 0 0 0 0 0 0 0 0 0 0 0 0 0 0 0 0 0
0 0 0 0 0 0 0 0 0 0 0 0 0 0 0 0 0 0 0 1 2 3 3 3 3 3 3 1 0 0 0 0 0 0 0 0 0 0 0 0 0 0 0 0 0 0 0 0 0
0 0 0 0 0 0 0 0 0 0 0 0 0 0 0 0 0 0 0 1 3 4 3 3 3 3 3 2 1 0 0 0 0 0 0 0 0 0 0 0 0 0 0 0 0 0 0 0 0
0 0 0 0 0 0 0 0 0 0 0 0 0 0 0 0 0 0 0 1 3 4 4 4 4 4 4 3 1 0 0 0 0 0 0 0 0 0 0 0 0 0 0 0 0 0 0 0 0
0 0 0 0 0 0 0 0 0 0 0 0 0 0 0 0 0 0 0 1 3 4 5 5 5 5 6 5 3 1 1 1 0 0 0 0 0 0 0 0 0 0 0 0 0 0 0 0 0
0 0 0 0 0 0 0 0 0 0 0 0 0 0 0 0 0 0 0 1 3 4 4 4 5 6 6 5 4 3 3 2 0 0 0 0 0 0 0 0 0 0 0 0 0 0 0 0 0
0 0 0 0 0 0 0 0 0 0 0 0 0 0 0 0 0 1 1 2 3 4 4 3 4 5 4 4 4 5 5 2 0 0 0 0 0 0 0 0 0 0 0 0 0 0 0 0 0
0 0 0 0 0 0 0 0 0 0 0 0 0 0 0 0 0 1 3 3 4 4 4 3 3 4 4 4 5 5 5 3 1 0 0 0 0 0 0 0 0 0 0 0 0 0 0 0 0
0 0 0 0 0 0 0 0 0 0 0 0 0 0 0 0 1 2 4 5 5 5 4 3 3 3 3 4 4 4 4 4 3 1 0 0 0 0 0 0 0 0 0 0 0 0 0 0 0
0 0 0 0 0 0 0 0 0 0 0 0 0 0 0 0 1 3 4 4 5 6 5 4 3 2 2 3 3 3 3 4 3 2 1 0 0 0 0 0 0 0 0 0 0 0 0 0 0
0 0 0 0 0 0 0 0 0 0 0 0 0 0 0 0 1 2 3 4 5 6 6 5 3 1 1 2 3 3 3 3 3 3 1 1 1 0 0 0 0 0 0 0 0 0 0 0 0
0 0 0 0 0 0 0 0 0 0 0 0 0 0 0 0 0 1 2 4 5 6 5 4 3 2 1 1 3 3 3 3 3 3 3 2 1 0 0 0 0 0 0 0 0 0 0 0 0
0 0 0 0 0 0 0 0 0 0 0 0 0 0 0 0 0 0 1 2 3 3 3 3 3 2 1 1 2 3 3 3 3 3 3 3 1 0 0 0 0 0 0 0 0 0 0 0 0
0 0 0 0 0 0 0 0 0 0 0 0 0 0 0 0 0 1 2 2 1 1 1 3 3 3 1 0 1 3 3 3 3 3 3 2 1 0 0 0 0 0 0 0 0 0 0 0 0
0 0 0 0 0 0 0 0 0 0 0 0 0 0 0 0 0 1 2 2 1 0 1 2 3 3 2 1 1 2 3 3 3 3 3 1 0 0 0 0 0 0 0 0 0 0 0 0 0
Wind_Speed
5 3 2 3 3 2 4 4 3 4 4 4 4 3 4 6 5 5 4 3 3 3 4 5 5 6 6 7 7 7 7 7 7 7 7 7 7 7 8 8 8 8 9 9 9 8 9 8 8
3 2 3 2 2 3 5 4 5 5 5 4 3 3 4 5 5 5 4 3 3 4 4 5 7 6 6 6 7 7 7 7 7 7 7 7 7 8 7 8 8 8 9 9 8 9 8 8 8
2 1 2 1 0 2 5 5 6 6 4 2 3 3 4 5 4 4 4 4 4 5 5 8 6 6 6 6 6 7 7 7 7 7 7 8 8 7 7 7 8 8 8 8 8 8 8 8 7
2 2 1 1 5 4 4 5 5 5 4 2 2 4 5 5 3 4 6 5 5 6 6 8 7 6 6 7 7 7 6 6 7 7 7 8 8 8 7 8 7 7 7 8 8 8 8 8 8
1 1 2 3 4 4 3 3 2 2 3 3 2 4 5 5 5 6 6 5 5 6 6 7 7 7 7 7 7 7 6 6 6 7 7 7 8 8 8 8 8 8 8 8 8 8 8 8 8
1 2 2 3 5 4 4 3 3 3 4 3 3 4 5 5 5 6 6 5 5 6 5 7 7 6 7 7 7 6 6 6 6 7 7 7 7 8 8 8 9 8 8 8 8 8 8 8 8
0 0 2 4 4 4 3 2 2 3 3 3 2 3 6 6 5 6 6 5 5 5 5 5 5 6 7 7 7 7 7 6 7 7 7 7 7 8 8 8 8 8 8 8 8 8 8 8 8
1 1 3 3 4 4 3 2 3 2 4 4 1 2 5 6 6 6 6 5 5 5 4 4 4 5 5 7 8 8 8 7 7 7 7 6 6 7 6 7 8 8 8 8 8 8 9 9 9
2 2 2 3 3 4 3 3 3 3 4 3 3 3 5 8 8 7 6 5 5 4 4 4 4 4 4 5 6 6 7 6 4 5 5 2 3 5 5 9 8 7 7 8 8 8 7 6 8
2 1 2 2 2 4 3 2 3 3 3 3 4 5 7 8 7 7 6 5 5 5 4 4 4 4 4 4 4 3 4 4 3 4 4 3 4 4 4 7 6 6 6 6 7 5 3 1 4
2 2 3 3 2 3 3 2 2 2 1 1 3 6 8 7 6 5 5 4 4 5 4 4 4 4 4 3 3 2 2 2 3 4 4 3 3 3 2 2 3 4 3 3 4 2 3 4 4
3 2 2 2 3 2 2 2 1 1 1 1 3 6 8 7 6 6 5 5 5 5 4 4 4 4 4 3 3 2 2 2 2 3 4 2 2 2 3 2 2 2 2 3 2 2 4 4 4
3 3 2 2 2 2 2 2 1 2 1 2 5 7 7 7 6 5 4 5 5 5 5 4 3 3 3 3 2 2 2 2 3 2 2 3 2 2 2 2 2 2 2 2 2 2 4 4 4
3 3 2 2 2 2 2 3 3 2 3 4 5 6 7 6 6 6 6 5 5 5 5 5 4 3 3 3 2 2 2 2 2 2 3 3 2 2 2 2 2 2 2 2 2 3 3 3 3
3 3 2 2 2 2 3 3 4 3 4 5 5 6 6 6 6 6 6 6 5 5 5 5 4 3 3 3 2 2 2 2 2 2 3 3 3 2 2 2 2 2 2 2 2 3 2 2 2
4 4 3 2 2 3 6 3 2 3 5 5 5 6 6 6 6 5 6 5 5 5 5 5 3 3 3 3 2 2 2 2 2 2 2 3 3 3 3 2 2 2 2 2 2 2 2 2 2
5 4 3 2 2 3 5 4 2 4 5 5 5 6 6 7 6 6 6 6 6 6 5 5 5 4 4 3 3 2 2 2 1 1 2 2 2 2 2 2 2 2 1 1 1 2 2 2 2
4 4 3 3 2 4 6 6 5 5 6 6 5 6 6 7 7 7 6 6 6 6 5 5 5 4 4 3 2 2 2 2 1 1 1 1 1 2 2 1 1 1 1 1 1 2 1 1 1
4 5 5 4 2 5 7 7 6 6 7 7 7 7 7 6 6 6 6 6 6 6 6 6 5 5 4 3 2 2 2 2 1 1 1 1 1 1 1 1 1 1 1 1 1 1 1 1 0
6 7 6 3 1 4 6 8 6 6 8 7 7 7 7 7 6 7 7 7 7 7 6 6 6 5 4 3 2 2 2 1 1 1 1 1 1 0 1 0 0 0 0 0 0 0 1 1 1
7 8 6 5 3 5 6 7 5 4 6 6 7 7 8 7 8 8 8 8 7 7 6 5 6 6 5 4 3 2 2 2 2 1 1 1 1 0 0 0 0 0 0 0 1 1 1 1 1
7 5 6 6 7 4 4 6 3 3 4 6 6 7 7 7 7 7 8 8 8 7 6 6 6 5 5 5 4 4 3 3 2 1 1 2 2 1 1 1 1 1 1 1 1 1 1 2 1
4 2 5 6 7 8 6 7 3 1 4 4 5 6 7 7 8 8 8 8 8 7 6 5 6 5 5 5 5 4 3 2 2 2 2 2 1 1 1 1 1 1 1 2 2 2 2 2 2
4 4 4 6 6 8 5 6 4 1 3 2 3 4 6 7 7 7 7 7 7 6 6 5 5 5 5 4 5 5 4 3 3 3 2 2 1 1 1 2 2 2 2 2 2 2 3 3 3
7 6 5 5 5 3 1 4 4 3 3 3 3 2 4 6 7 7 7 7 7 7 7 6 6 6 6 5 5 5 5 5 4 3 3 2 2 2 2 2 2 2 2 2 2 3 3 3 3
7 8 6 4 4 2 3 5 2 3 2 2 2 1 2 4 6 6 7 7 7 7 7 7 7 6 6 6 5 5 5 4 3 3 3 3 2 2 2 3 3 3 3 3 3 3 3 3 3
6 6 5 7 6 6 4 3 3 0 1 1 1 1 2 3 5 5 5 6 6 6 7 7 7 6 6 6 5 5 5 4 4 4 3 2 3 2 3 3 3 3 3 3 3 3 3 3 3
6 4 5 6 5 6 5 5 3 1 1 0 1 1 2 3 4 4 5 5 5 5 5 6 6 6 6 6 5 4 4 4 4 4 4 3 3 3 3 3 3 3 3 3 3 3 3 4 3
6 7 7 5 5 5 4 1 2 2 3 2 1 1 2 3 3 4 4 4 5 5 5 5 5 5 5 5 5 5 4 4 4 4 4 4 4 4 4 3 3 3 3 3 3 4 4 5 4
6 7 8 7 6 6 6 3 2 1 2 3 2 1 1 2 3 4 4 4 4 5 4 5 5 5 5 5 5 5 5 4 5 4 5 5 4 4 4 4 4 4 4 4 4 5 5 5 5
Wind_Direction
155 171 220 237 220 146 90 85 93 101 78 65 61 54 51 35 18 54 78 82 74 86 96 113 98 90 87 86 81 81 83 82 82 84 85 85 84 82 82 80 77 75 72 69 65 63 62 62 65
151 187 234 241 230 136 104 96 93 74 88 106 88 73 70 66 54 81 102 92 92 89 90 90 94 93 90 86 81 77 80 82 82 82 82 83 81 78 76 76 76 75 72 68 65 63 60 58 60
140 242 269 239 95 77 103 102 91 88 99 122 97 58 43 60 76 89 97 112 102 89 86 86 88 92 90 87 82 77 81 81 81 81 79 80 78 78 76 75 76 75 73 69 65 64 61 57 57
212 205 211 149 96 70 84 107 110 116 105 88 106 93 80 55 65 93 111 112 101 92 87 86 79 84 87 84 85 80 80 79 77 76 79 78 75 73 73 72 73 73 72 71 66 64 62 58 57
240 241 159 121 99 88 78 75 100 102 97 92 107 94 93 83 88 107 115 110 103 98 93 92 82 80 81 83 83 77 76 75 75 73 73 74 73 72 70 68 68 68 68 70 69 66 64 60 61
207 227 169 124 110 104 90 81 100 96 97 97 109 106 95 104 111 115 116 108 98 96 98 99 95 83 77 76 76 74 73 72 76 77 73 71 70 71 68 66 65 64 64 67 69 67 66 63 63
234 123 105 115 121 117 94 81 90 93 101 86 90 105 112 122 120 125 119 108 97 97 98 95 105 107 98 79 70 68 71 72 74 78 74 73 70 72 72 70 65 63 62 63 67 67 67 64 63
295 174 133 129 134 113 99 90 67 62 79 78 65 94 113 130 135 135 124 116 109 106 103 96 94 95 104 104 80 67 69 72 73 75 74 77 90 88 80 82 69 62 62 63 66 65 67 66 65
218 194 139 134 136 116 118 114 88 77 103 100 81 61 92 128 144 143 136 131 124 115 109 103 100 94 87 86 90 90 87 82 95 99 93 104 97 91 93 68 67 68 70 68 66 66 67 75 83
204 152 100 96 116 117 132 130 121 139 132 131 125 113 122 143 154 152 151 144 136 128 118 113 109 103 97 87 92 83 84 86 84 82 90 82 76 70 71 87 77 77 81 87 76 79 100 84 84
134 118 105 116 120 134 141 136 153 166 138 140 145 143 147 155 158 158 155 142 134 129 117 117 120 113 105 102 88 75 70 76 81 79 85 80 81 88 82 98 112 104 107 91 101 120 68 61 61
124 110 137 124 128 154 157 149 158 207 19 73 131 143 154 163 166 166 161 147 146 135 130 127 127 123 118 109 95 91 88 78 77 81 81 85 77 73 70 68 68 72 69 63 60 54 64 63 67
141 126 116 131 147 176 179 199 214 215 215 150 144 154 163 170 171 168 161 153 151 145 146 139 138 129 122 110 106 110 93 80 80 65 70 73 66 69 76 75 68 65 68 75 65 64 66 58 53
123 130 151 173 179 190 202 224 228 218 175 160 163 170 172 175 178 169 167 170 162 158 154 145 152 140 133 125 130 110 97 97 74 66 54 62 67 61 63 69 72 66 61 56 64 68 67 56 49
156 166 185 188 203 194 219 227 223 199 179 180 183 181 175 181 182 183 177 176 170 165 156 150 151 148 141 125 114 104 106 97 85 74 59 67 61 57 55 52 65 67 67 64 52 64 61 62 57
201 216 212 163 205 203 238 249 177 166 185 194 198 191 185 186 191 190 185 181 175 172 163 152 155 161 145 140 131 124 118 104 94 80 54 59 64 63 63 54 56 55 55 52 51 45 54 59 45
213 228 234 190 189 216 238 261 201 193 210 213 210 201 196 191 195 193 191 189 180 176 173 166 169 168 156 148 141 126 123 123 104 90 73 56 62 65 76 54 45 58 50 55 54 45 37 45 41
226 247 252 254 193 233 249 259 251 227 225 224 217 211 206 202 200 193 192 192 184 179 177 173 171 170 159 158 153 144 137 135 126 103 92 69 55 63 75 82 63 62 61 64 75 72 52 38 40
253 256 269 285 270 260 265 269 263 239 230 227 224 218 213 209 198 188 189 188 186 183 185 180 183 175 172 170 170 168 158 150 133 123 100 99 76 60 69 60 63 39 59 52 83 77 91 44 352
234 248 264 272 214 263 278 279 269 235 231 234 233 227 219 206 191 181 186 183 188 187 191 188 190 180 176 178 178 174 162 172 135 145 141 131 93 71 50 36 68 105 81 153 71 10 319 25 319
242 254 266 282 279 245 275 265 235 220 225 228 233 232 223 209 198 182 183 185 186 190 190 190 191 180 175 173 175 165 159 182 174 176 184 208 223 181 130 12 321 277 216 234 255 223 245 280 291
249 252 256 258 267 267 260 290 267 224 223 222 223 222 219 209 203 188 185 188 190 193 192 192 184 178 175 176 183 186 189 191 195 181 185 203 214 218 226 247 258 250 253 249 254 254 260 268 272
258 236 239 253 267 274 247 265 283 209 244 229 219 217 215 207 202 195 190 190 190 186 188 192 182 177 176 184 178 196 197 193 186 185 188 197 195 218 226 251 251 256 257 262 266 267 262 258 272
205 203 209 228 248 260 256 256 291 241 278 285 223 213 207 202 197 196 189 187 183 176 180 185 184 179 179 186 187 197 195 199 197 195 198 201 190 213 223 251 246 253 258 260 261 257 255 265 268
219 240 240 229 225 248 140 253 274 342 344 324 297 233 199 191 190 190 184 180 178 178 182 185 186 186 188 195 195 202 204 209 211 210 212 218 214 219 228 237 248 254 255 254 256 256 254 251 252
222 242 261 279 281 291 205 248 277 22 355 331 312 235 174 177 181 181 182 183 181 182 185 189 191 194 194 201 202 205 209 217 217 223 228 226 237 241 246 250 253 256 254 248 241 253 253 252 249
222 230 267 279 280 276 253 245 261 73 119 83 100 122 154 170 174 174 177 184 183 185 188 195 195 198 198 202 207 210 212 219 222 227 230 232 239 245 246 245 249 248 249 251 245 246 249 253 256
260 232 223 244 267 267 260 256 272 286 9 41 157 149 162 169 170 173 175 184 183 186 190 193 197 201 200 203 207 207 216 219 229 228 230 234 240 241 240 244 252 252 249 247 245 248 251 247 249
205 215 228 239 254 273 277 268 46 353 349 315 262 200 172 172 173 174 176 181 180 179 186 192 198 203 205 205 208 208 212 223 225 233 238 245 250 245 246 248 255 257 254 250 242 245 239 244 244
237 235 231 241 241 246 272 276 103 282 322 316 302 227 176 176 173 171 172 173 179 185 190 197 200 201 202 206 209 213 213 219 226 232 238 240 246 248 248 248 250 254 257 256 250 247 245 247 250